Regional Weather Roundup
Issued by NWS Boston, MA

Current Version | Previous Version | Text Only | Print | Product List | Glossary Off
Versions: 1 2 3 4 5 6 7 8 9 10 11 12 13 14 15 16 17 18 19 20 21 22 23 24 25 26
000 ASUS41 KBOX 270610 RWRBOX REGIONAL WEATHER ROUNDUP NATIONAL WEATHER SERVICE TAUNTON MA 200 AM EDT THU JUL 27 2017 NOTE: "FAIR" INDICATES FEW OR NO CLOUDS BELOW 12,000 FEET WITH NO SIGNIFICANT WEATHER AND/OR OBSTRUCTIONS TO VISIBILITY. MAZALL-270700- EASTERN MASSACHUSETTS CITY SKY/WX TMP DP RH WIND PRES REMARKS BOSTON CLOUDY 65 58 78 SW12 30.08F 6HR MIN TEMP: 65; 6HR MAX TEMP: 70; BEVERLY CLOUDY 64 58 80 SW6 30.07F LAWRENCE PTCLDY 67 58 72 S7 30.08F BEDFORD CLOUDY 62 55 77 S5 30.06F BLUE HILL N/A 61 57 87 SW13 30.09F NORWOOD CLOUDY 61 59 93 S5 30.09S MARSHFIELD MOCLDY 64 61 88 SW6 30.09S PLYMOUTH CLOUDY 61 59 93 S3 30.10F TAUNTON CLOUDY 58 56 93 CALM 30.10F NEW BEDFORD PTCLDY 59 58 96 SW5 30.10F $$ MAZALL-270700- CAPE COD AND THE ISLANDS CITY SKY/WX TMP DP RH WIND PRES REMARKS FALMOUTH MOCLDY 59 57 94 SW6 30.11F HYANNIS PTCLDY 62 56 80 SW7 30.09F CHATHAM PTCLDY 63 58 83 SW6 30.11F PROVINCETOWN CLOUDY 62 60 93 SW9 30.10F NANTUCKET PTCLDY 57 56 96 SW7 30.12F MARTHAS VNYRD MOCLDY 52 50 93 CALM 30.11F FOG $$ MAZALL-270700- CENTRAL AND WESTERN MASSACHUSETTS CITY SKY/WX TMP DP RH WIND PRES REMARKS WORCESTER PTCLDY 61 54 77 SW12 30.10F 6HR MIN TEMP: 60; 6HR MAX TEMP: 69; FITCHBURG CLOUDY 68 57 68 SW5 30.07F ORANGE CLOUDY 62 59 90 SW6 30.08F SPRINGFIELD PTCLDY 63 57 82 S3 30.07F WESTFIELD PTCLDY 62 59 90 S5 30.08F NORTH ADAMS CLOUDY 63 58 83 SE6 30.07F PITTSFIELD PTCLDY 62 53 72 W6 30.08F $$ RIZALL-270700- RHODE ISLAND CITY SKY/WX TMP DP RH WIND PRES REMARKS PROVIDENCE CLOUDY 62 61 96 SW5 30.11F 6HR MIN TEMP: 62; 6HR MAX TEMP: 70; NEWPORT PTCLDY 64 61 90 S5 30.10F BLOCK ISLAND PTCLDY 61 58 90 SW5 30.12F WESTERLY PTCLDY 64 60 87 CALM 30.12F $$ CTZALL-270700- CONNECTICUT CITY SKY/WX TMP DP RH WIND PRES REMARKS BRADLEY INTL CLOUDY 63 58 83 S7 30.09F 6HR MIN TEMP: 63; 6HR MAX TEMP: 72; HARTFORD CLOUDY 64 59 83 S5 30.09F BRIDGEPORT PTCLDY 68 58 70 SW7 30.11F DANBURY PTCLDY 60 56 86 CALM 30.12F GROTON PTCLDY 63 60 90 CALM 30.10F NEW HAVEN CLOUDY 68 58 70 SW5 30.11F CHESTER FAIR 63 59 88 SW3 30.12S MERIDEN CLOUDY 59 58 96 CALM 30.10F WILLIMANTIC CLOUDY 62 59 90 CALM 30.11F OXFORD CLOUDY 59 54 82 CALM 30.12F $$ MEZ002-015-021-024-NHZ003-005-008-011-012-014-VTZ005-008-270700- NORTHERN NEW ENGLAND CITY SKY/WX TMP DP RH WIND PRES REMARKS PORTLAND ME CLOUDY 63 56 78 SW3 30.04F 6HR MIN TEMP: 63; 6HR MAX TEMP: 69; BANGOR ME CLOUDY 62 54 74 SW7 30.04S CONCORD NH CLOUDY 63 56 78 S6 30.05F MANCHESTER NH MOCLDY 65 56 72 S8 30.05F NASHUA NH PTCLDY 64 59 83 CALM 30.07F PORTSMOUTH NH MOCLDY 65 57 77 SW7 30.04F JAFFREY NH PTCLDY 63 59 87 CALM 30.09F KEENE NH CLOUDY 59 58 96 CALM 30.07F BURLINGTON VT LGT RAIN 68 61 78 S12 29.97F MT. WASHINGTON DRZL/FOG 46 46 100 W36 N/A VSB 0 $$ NYZ052-076-270700- EASTERN NEW YORK CITY SKY/WX TMP DP RH WIND PRES REMARKS ALBANY CLOUDY 67 58 72 S12 30.03F 6HR MIN TEMP: 67; 6HR MAX TEMP: 73; NEW YORK CITY MOCLDY 69 60 73 S5 30.11S 6HR MIN TEMP: 69; 6HR MAX TEMP: 73; $$ ANZALL-270700- MARINE OBSERVATIONS STATION/POSITION TIME TEMP WIND PRES VSBY WAVE AIR SEA DIR/SP/G HT/PER (UTC) (F) (DEG/KT/KT) (MB) (MI) (FT/S) BOSTON BUOY 0550 64 64 220/ 14/ 16 1018.1F 2/ 8 BUZZARDS BAY 0500 65 210/ 9/ 10 1020.2F NANTUCKET SOUND 0550 69 1019.3F 1 MASS BAY-STELLWA 0504 64 62 200/ 12/ 14 1017.8F 3/ 8 ISLE OF SHOALS 0500 65 210/ 16/ 18 1017.7F S OF BLOCK IS 0555 71 N/A 2/ 9 $$ ......................KEY......................... SKY/WX - SKY CONDITION/PRESENT WEATHER TMP - TEMPERATURE IN FAHRENHEIT DWPT - DEWPOINT IN FAHRENHEIT RH - RELATIVE HUMIDITY IN PERCENT WIND - DIRECTION AND SPEED IN MPH PRES - MEAN SEA LEVEL PRESSURE IN INCHES OF HG WCI - WIND CHILL INDEX VSB - VISIBILITY IN MILES HX - HEAT INDEX TC - TEMPERATURE IN CELSIUS VRB - VARIABLE WIND DIRECTION N/A - NOT AVAILABLE

USA.gov is the U.S. government's official web portal to all federal, state and local government web resources and services.